This demonstration page uses our WeatherBlox Daily Observations layout. Learn more.

Left ArrowRight Arrow

Hourly Observations for February 22, 2020

Temp ( °F °C ) Dew Point ( °F °C ) Humidity (%) Winds ( mph kmh ) Pressure ( in mb ) Visibility ( mi km ) Precip ( " mm )
12:59 am 00:59 Clear 28 -2.2 18 -7.8 66 66 Calm 30.45 1031 10 16 0.00 0.00
1:59 am 01:59 Clear 27 -2.8 18 -7.8 69 69 Calm 30.44 1031 10 16 0.00 0.00
2:59 am 02:59 Clear 27 -2.8 18 -7.8 69 69 Calm 30.42 1030 10 16 0.00 0.00
3:59 am 03:59 Clear 27 -2.8 21 -6.1 78 78 WSW 5 7 30.42 1030 10 16 0.00 0.00
4:59 am 04:59 Clear 28 -2.2 23 -5 81 81 WSW 3 6 30.43 1031 10 16 0.00 0.00
5:59 am 05:59 Clear 26 -3.3 22 -5.6 84 84 Calm 30.43 1031 10 16 0.00 0.00
6:59 am 06:59 Sunny 27 -2.8 22 -5.6 81 81 SW 5 7 30.45 1031 10 16 0.00 0.00
7:59 am 07:59 Sunny 32 0 22 -5.6 66 66 WSW 5 7 30.47 1032 10 16 0.00 0.00
8:59 am 08:59 Sunny 36 2.2 21 -6.1 55 55 WSW 7 11 30.48 1032 10 16 0.00 0.00
9:59 am 09:59 Sunny 40 4.4 17 -8.3 40 40 W 6 9 30.47 1032 10 16 0.00 0.00
10:59 am 10:59 Mostly Sunny 43 6.1 15 -9.4 32 32 WSW 7 11 30.46 1032 10 16 0.00 0.00
11:59 am 11:59 Mostly Sunny 45 7.2 20 -6.7 37 37 VRB 7 11 30.45 1031 10 16 0.00 0.00
12:59 pm 12:59 Mostly Sunny 48 8.9 19 -7.2 32 32 WSW 7 11 30.40 1029 10 16 0.00 0.00
1:59 pm 13:59 Partly Cloudy 49 9.4 16 -8.9 27 27 WSW 8 13 30.37 1028 10 16 0.00 0.00
2:59 pm 14:59 Partly Cloudy 51 10.6 20 -6.7 29 29 SSW 7 11 30.35 1028 10 16 0.00 0.00
3:59 pm 15:59 Mostly Sunny 49 9.4 19 -7.2 31 31 SSW 7 11 30.34 1027 10 16 0.00 0.00
4:59 pm 16:59 Mostly Sunny 49 9.4 21 -6.1 33 33 SW 8 13 30.32 1027 10 16 0.00 0.00
5:59 pm 17:59 Mostly Clear 46 7.8 24 -4.4 42 42 SW 7 11 30.33 1027 10 16 0.00 0.00
6:59 pm 18:59 Clear 43 6.1 24 -4.4 47 47 SW 6 9 30.35 1028 10 16 0.00 0.00
7:59 pm 19:59 Clear 38 3.3 27 -2.8 65 65 SSW 3 6 30.35 1028 10 16 0.00 0.00
8:59 pm 20:59 Clear 39 3.9 26 -3.3 60 60 SSW 5 7 30.35 1028 10 16 0.00 0.00
9:59 pm 21:59 Clear 38 3.3 26 -3.3 62 62 SSW 7 11 30.34 1027 10 16 0.00 0.00
10:59 pm 22:59 Clear 39 3.9 26 -3.3 60 60 S 5 7 30.32 1027 10 16 0.00 0.00
11:59 pm 23:59 Clear 38 3.3 26 -3.3 62 62 SSW 7 11 30.31 1026 10 16 0.00 0.00

Powered by AerisWeather